Voss, Norway 16 day weather forecast

Slopes altitude range -1 m - -1m

Number of lifts: -1 Pistes: -1km

In some cases the lift and piste totals shown are for the ski domain (e.g. Three Valleys) rather than individual resort (e.g. Courchevel)

Overview

The 16 day weather forecast is fully updated 4 times every day.

    • Sun 23 SEP 2018
    • Sun 23
    • -1C 2C
    • Mon 24 SEP 2018
    • Mon 24
    • -4C 0C
    • Tue 25 SEP 2018
    • Tue 25
    • -3C 4C
    • Wed 26 SEP 2018
    • Wed 26
    • 2C 5C
    • Thu 27 SEP 2018
    • Thu 27
    • -1C 2C
    • Fri 28 SEP 2018
    • Fri 28
    • -4C 1C
    • Sat 29 SEP 2018
    • Sat 29
    • -4C 1C
    • Sun 30 SEP 2018
    • Sun 30
    • -1C 7C
    • Mon 01 OCT 2018
    • Mon 01
    • 2C 4C
    • Tue 02 OCT 2018
    • Tue 02
    • 3C 4C
    • Wed 03 OCT 2018
    • Wed 03
    • -2C 7C
    • Thu 04 OCT 2018
    • Thu 04
    • -1C 3C
    • Fri 05 OCT 2018
    • Fri 05
    • -1C 4C
    • Sat 06 OCT 2018
    • Sat 06
    • -2C 4C
    • Sun 07 OCT 2018
    • Sun 07
    • -3C 2C
    • Mon 08 OCT 2018
    • Mon 08
    • -5C 1C

Date:

Time Type 0°C level Temp Chill Snow Cloud Speed Gust Dir Press
3:00 983m -2°C -2_8 0cm 14% 8mph 10mph 1000mB
6:00 1029m -2°C -2_8 0cm 44% 8mph 13mph 1002mB
9:00 1298m -1°C -1_13 0cm 93% 13mph 19mph 1004mB
12:00 1343m 2°C 2_14 0cm 86% 14mph 19mph 1005mB
15:00 1297m 2°C 2_14 0cm 100% 14mph 19mph 1007mB
18:00 788m 2°C 2_9 0cm 100% 9mph 10mph 1010mB
21:00 593m -4°C -4_8 0cm 100% 8mph 9mph 1013mB
0:00 485m -5°C -5_8 0cm 95% 8mph 11mph 1015mB
3:00 535m -5°C -5_9 0cm 100% 9mph 15mph 1017mB
6:00 529m -5°C -5_8 0cm 100% 8mph 15mph 1020mB
9:00 944m -4°C -4_12 0cm 100% 12mph 17mph 1022mB
12:00 1167m 0°C 0_14 0cm 97% 14mph 19mph 1024mB
15:00 1169m 0°C 0_12 0cm 52% 12mph 16mph 1025mB
18:00 578m 0°C 0_6 0cm 27% 6mph 7mph 1028mB
21:00 426m -5°C -5_6 0cm 31% 6mph 7mph 1030mB
0:00 406m -6°C -6_6 0cm 46% 6mph 6mph 1030mB
3:00 549m -5°C -5_6 0cm 100% 6mph 7mph 1029mB
6:00 673m -5°C -5_6 0cm 100% 6mph 6mph 1027mB
9:00 1324m -3°C -3_7 1cm 100% 7mph 17mph 1025mB
12:00 1599m 4°C 4_12 0cm 100% 12mph 26mph 1023mB
15:00 1664m 4°C 4_5 0cm 100% 5mph 9mph 1021mB
18:00 1661m 4°C 4_6 0cm 100% 6mph 7mph 1019mB
21:00 1389m 0°C 0_7 0cm 100% 7mph 11mph 1016mB
0:00 1229m -1°C -1_7 0cm 100% 7mph 9mph 1011mB
3:00 2863m 0°C 0_10 0cm 100% 10mph 14mph 1006mB
6:00 2759m 0°C 0_11 0cm 97% 11mph 30mph 1001mB
9:00 2052m 3°C 3_15 0cm 90% 15mph 45mph 1000mB
12:00 1597m 5°C 5_34 1cm 93% 34mph 54mph 1004mB
15:00 1225m 3°C 3_36 1cm 84% 36mph 53mph 1008mB
18:00 1007m 3°C 3_23 0cm 69% 23mph 43mph 1011mB
21:00 958m -2°C -2_18 0cm 19% 18mph 38mph 1013mB
0:00 999m -2°C -2_13 0cm 19% 13mph 30mph 1014mB
3:00 1264m -1°C -1_9 1cm 69% 9mph 28mph 1012mB
6:00 1143m -1°C -1_16 1cm 73% 16mph 36mph 1012mB
9:00 1353m -1°C -1_18 0cm 25% 18mph 32mph 1013mB
12:00 1374m 2°C 2_18 0cm 52% 18mph 28mph 1013mB
15:00 1297m 2°C 2_16 0cm 92% 16mph 26mph 1013mB
18:00 692m 2°C 2_9 0cm 80% 9mph 10mph 1014mB
21:00 572m -4°C -4_7 0cm 5% 7mph 8mph 1016mB
0:00 710m -4°C -4_8 0cm 21% 8mph 9mph 1018mB
3:00 697m -4°C -4_8 0cm 63% 8mph 9mph 1019mB
6:00 640m -4°C -4_6 0cm 58% 6mph 7mph 1020mB
9:00 1122m -4°C -4_7 0cm 23% 7mph 9mph 1020mB
12:00 1269m 1°C 1_10 0cm 28% 10mph 11mph 1021mB
15:00 1220m 1°C 1_9 0cm 94% 9mph 11mph 1021mB
18:00 649m 1°C 1_7 0cm 59% 7mph 8mph 1023mB
21:00 553m -4°C -4_5 0cm 0% 5mph 6mph 1025mB
0:00 495m -5°C -5_2 0cm 0% 2mph 3mph 1025mB
3:00 527m -5°C -5_3 0cm 84% 3mph 4mph 1025mB
6:00 575m -5°C -5_3 0cm 90% 3mph 3mph 1025mB
9:00 1016m -4°C -4_3 0cm 99% 3mph 3mph 1023mB
12:00 1303m 1°C 1_3 0cm 98% 3mph 5mph 1021mB
15:00 1367m 2°C 2_4 0cm 99% 4mph 5mph 1019mB
18:00 1083m 2°C 2_5 0cm 99% 5mph 5mph 1019mB
21:00 980m -2°C -2_4 1cm 100% 4mph 4mph 1019mB
0:00 911m -2°C -2_4 1cm 100% 4mph 5mph 1017mB
3:00 837m -3°C -3_5 1cm 100% 5mph 5mph 1016mB
6:00 715m -4°C -4_5 1cm 100% 5mph 5mph 1015mB
9:00 1144m -1°C -1_5 0cm 74% 5mph 9mph 1015mB
12:00 1469m 7°C 7_7 0cm 76% 7mph 12mph 1013mB
15:00 1522m 7°C 7_9 0cm 97% 9mph 15mph 1012mB
18:00 1416m 7°C 7_5 0cm 96% 5mph 7mph 1013mB
21:00 972m 0°C 0_3 0cm 88% 3mph 4mph 1013mB
0:00 800m -1°C -1_3 0cm 86% 3mph 4mph 1011mB
3:00 1384m 0°C 0_2 0cm 95% 2mph 3mph 1010mB
6:00 1464m 0°C 0_3 0cm 97% 3mph 3mph 1010mB
9:00 1338m 2°C 2_6 0cm 97% 6mph 15mph 1009mB
12:00 1367m 4°C 4_3 0cm 98% 3mph 5mph 1008mB
15:00 1472m 4°C 4_3 0cm 100% 3mph 5mph 1007mB
18:00 1475m 4°C 4_4 0cm 99% 4mph 5mph 1007mB
21:00 1514m 2°C 2_5 0cm 97% 5mph 6mph 1006mB
0:00 1598m 2°C 2_5 0cm 98% 5mph 7mph 1004mB
3:00 1587m 2°C 2_5 0cm 99% 5mph 7mph 1003mB
6:00 1670m 2°C 2_4 0cm 99% 4mph 6mph 1003mB
9:00 1687m 2°C 2_5 0cm 99% 5mph 8mph 1003mB
12:00 1508m 4°C 4_5 0cm 99% 5mph 10mph 1003mB
15:00 1425m 4°C 4_5 0cm 96% 5mph 11mph 1003mB
18:00 1436m 4°C 4_5 0cm 91% 5mph 9mph 1005mB
Morning 0.322917mm 0 512m -3°C -3_5 0cm 21% 5mph 6mph 1006mB
Afternoon 0.0572917mm 0.0625 1846m 7°C 7_17 0cm 70% 17mph 38mph 996mB
Morning 0.0260417mm 0.375 882m -1°C -1_13 3cm 92% 13mph 33mph 1004mB
Afternoon 0.3125mm 0.4375 1202m 3°C 3_11 4cm 84% 11mph 28mph 1006mB
Morning 0.572917mm 0 724m -2°C -2_8 0cm 83% 8mph 16mph 1013mB
Afternoon 0.28125mm 0.0625 1146m 4°C 4_12 2cm 50% 12mph 24mph 1006mB
Morning 0.0208333mm 0 1571m 1°C 1_11 0cm 91% 11mph 22mph 991mB
Afternoon 0.00520833mm 0.0625 643m 4°C 4_11 0cm 10% 11mph 23mph 1001mB
Morning 0.0520833mm 0 646m -4°C -4_7 1cm 67% 7mph 14mph 997mB
Afternoon 0.078125mm 0 582m 2°C 2_12 0cm 40% 12mph 27mph 1004mB
Morning 0.015625mm 0 129m -6°C -6_8 0cm 12% 8mph 13mph 1003mB
Afternoon 0.0208333mm 0.5625 250m 1°C 1_7 4cm 63% 7mph 9mph 1001mB

16 day outlook at a glance

Forecast issued: 23/09/2018 05:47:52

Chat

Your comments and questions. In a resort? Let us know what it's like!


Characters left 250

For terms and conditions see Readers Comments on the Cookie and privacy policy page.